[[{"header":{"parameterUnit":"m.s-1","parameterCategory":1,"la1":30.2991,"la2":30.254,"lo1":-89.0895,"lo2":-89.0444,"dy":0.0017,"dx":0.0017,"nx":28,"ny":28,"refTime":"2024-09-03T21:00:00:Z","depth":0,"parameterNumber":2,"parameterNumberName":"U-component_of_WINDS"},"data":[0,0,0,0,0,0,0,0,0,0,0,0,0,0,0,0,0,0,0,0,0,0,0,0,0,0,0,0,0,0,0,0,0,0,0,0,0,0,0,0,0,0,0,0,0,0,0,0,0,0,0,0,0,0,0,0,0,0,-4.7598,-4.7599,0,-4.7674,-4.7675,-4.7675,-4.7535,-4.753,-4.7525,-4.7521,-4.7602,-4.7608,-4.7615,0,0,0,0,0,0,0,0,0,0,0,0,0,-4.7337,-4.7342,-4.7598,-4.7599,-4.76,-4.7674,-4.7675,-4.7676,-4.7536,-4.753,-4.7524,-4.7519,-4.76,-4.7608,-4.7615,0,0,0,0,0,0,0,0,0,0,0,0,0,-4.7435,-4.7344,-4.7598,-4.7539,-4.7535,-4.7673,-4.7675,-4.7676,-4.7537,-4.753,-4.7523,-4.7516,-4.7597,-4.7607,-4.7617,-4.7818,0,0,-4.7646,-4.7651,0,0,0,0,0,0,0,0,-4.743,-4.7445,-4.7547,-4.7543,-4.7539,-4.7588,-4.7612,-4.7724,-4.7539,-4.7536,-4.7521,-4.7513,-4.7603,-4.7612,-4.7642,-4.7821,-4.7825,-4.7647,-4.7653,-4.7657,-4.766,0,0,0,0,0,0,0,-4.7423,-4.7441,-4.7628,-4.7549,-4.7544,-4.751,-4.7516,-4.7632,-4.7608,-4.7536,-4.7526,-4.7536,-4.76,-4.7633,-4.7643,-4.7826,-4.7647,-4.7656,-4.7662,-4.7666,-4.8174,-4.8181,0,0,0,0,0,0,-4.7423,-4.7436,-4.7626,-4.763,-4.7466,-4.752,-4.7527,-4.7579,-4.7607,-4.7604,-4.7542,-4.753,-4.7619,-4.7631,-4.7645,-4.7881,-4.7657,-4.7667,-4.7672,-4.8167,-4.8176,-4.8184,0,0,0,0,0,0,-4.7418,-4.7441,-4.7623,-4.7531,-4.7551,-4.7532,-4.7592,-4.7584,-4.7617,-4.7611,-4.7607,-4.758,-4.7614,-4.7631,-4.7775,-4.7882,-4.7671,-4.768,-4.8158,-4.817,-4.818,-4.8356,0,0,0,0,0,0,-4.7411,-4.744,-4.7516,-4.7533,-4.7557,-4.7751,-4.7598,-4.7591,-4.7634,-4.7618,-4.7646,-4.7644,-4.761,-4.7762,-4.7785,-4.7892,-4.7688,-4.8148,-4.8163,-4.8176,-4.8341,-4.8372,-4.8399,0,0,0,0,0,-4.7402,-4.7563,-4.752,-4.7544,-4.765,-4.7758,-4.7771,-4.7728,-4.7643,-4.7719,-4.7715,-4.7643,-4.7867,-4.7777,-4.7803,-4.7914,-4.8141,-4.8159,-4.8175,-4.8328,-4.8366,-4.8398,0,0,0,0,0,0,-4.756,-4.7564,-4.7517,-4.7688,-4.7724,-4.7734,-4.7828,-4.777,-4.7831,-4.7814,-4.7759,-4.7767,-4.7922,-4.7933,-4.7833,-4.811,-4.799,-4.8013,-4.8097,-4.8133,-4.8162,-4.8156,-4.7696,0,0,0,0,0,-4.7614,-4.77,-4.77,-4.7851,-4.7871,-4.7848,-4.7893,-4.7856,-4.7891,-4.7906,-4.7913,-4.7951,-4.8029,-4.8082,-4.8154,-4.8342,-4.8346,-4.8431,-4.8461,-4.8485,-4.8505,-4.8604,-4.8642,-4.8241,-4.824,-4.824,0,0,-4.7728,-4.7741,-4.7799,-4.7883,-4.7906,-4.7997,-4.7861,-4.7963,-4.803,-4.7922,-4.8057,-4.8064,-4.8103,-4.827,-4.8343,-4.8283,-4.8617,-4.8507,-4.8526,-4.8533,-4.8626,-4.8664,-4.8698,-4.8252,-4.825,-4.8248,0,0,-4.7981,-4.8,-4.8127,-4.8153,-4.819,-4.8173,-4.8204,-4.8223,-4.8223,-4.8358,-4.8279,-4.8359,-4.8496,-4.8526,-4.856,-4.8826,-4.8761,-4.8851,-4.9003,-4.9101,-4.9133,-4.916,-4.9254,-4.9289,-4.8872,-4.8872,-4.8872,0,-4.8118,-4.825,-4.8201,-4.8308,-4.8347,-4.8253,-4.8382,-4.841,-4.8469,-4.8499,-4.8431,-4.86,-4.862,-4.8792,-4.8857,-4.8888,-4.8921,-4.8847,-4.9132,-4.9159,-4.9184,-4.9273,-4.9309,-4.8883,-4.8881,-4.888,-4.8879,0,-4.8416,-4.851,-4.8609,-4.8666,-4.8717,-4.8835,-4.8804,-4.8862,-4.8822,-4.8813,-4.8952,-4.8973,-4.9047,-4.9086,-4.9048,-4.9253,-4.9214,-4.9141,-4.9018,-4.9234,-4.9316,-4.935,-4.8898,-4.8894,-4.8891,-4.8888,0,0,-4.8769,-4.8798,-4.8835,-4.8859,-4.8893,-4.8965,-4.908,-4.9151,-4.9201,-4.9246,-4.934,-4.9459,-4.939,-4.9429,-4.9394,-4.948,-4.9688,-4.9395,-4.9395,-4.9448,-4.9915,-4.9969,-5.0009,-4.9647,-4.9653,-4.9658,-4.9911,0,-4.9018,-4.9213,-4.9172,-4.9364,-4.9449,-4.9362,-4.9461,-4.9493,-4.9489,-4.9561,-4.9556,-4.964,-4.9544,-4.9566,-4.9648,-4.9646,-4.9781,-4.9627,-4.9734,-4.9738,-4.9725,-5.0052,-5.011,-5.0347,-4.9943,-4.9948,-4.9952,0,-4.9335,-4.939,-4.959,-4.9609,-4.9644,-4.9734,-4.9796,-4.9867,-4.9902,-4.9892,-4.9936,-4.9885,-4.9999,-4.9878,-5.0035,-4.9931,-4.9973,-4.9979,-4.9987,-4.9993,-4.9857,-5.0067,-5.0422,-5.0457,-5.0003,-4.9999,-4.9995,0,-4.957,-4.9694,-4.9829,-4.9854,-4.9881,-4.9946,-4.9961,-4.9989,-5.0035,-5.009,-5.0119,-5.0188,-5.0226,-5.0281,-5.025,-5.0164,-5.0413,-5.0288,-5.0408,-5.0409,-5.0462,-5.0459,-5.0828,-5.0493,-5.0492,-5.0492,-5.0491,0,-4.9851,-4.9977,-4.9935,-5.0018,-5.0156,-5.011,-5.0248,-5.0253,-5.0279,-5.0362,-5.0292,-5.0372,-5.0327,-5.0404,-5.0382,-5.0515,-5.0533,-5.0529,-5.0521,-5.0534,-5.0534,-5.0559,-5.0541,-5.0501,-5.0499,-5.0497,-5.0496,0,-5.0136,-5.0113,-5.0255,-5.0269,-5.0276,-5.0377,-5.0389,-5.0467,-5.0457,-5.0564,-5.0586,-5.0571,-5.0658,-5.0634,-5.0729,-5.0713,-5.0881,-5.0854,-5.0869,-5.0861,-5.0982,-5.097,-5.1378,-5.1429,-5.1063,-5.1066,-5.1069,0,-5.0316,-5.041,-5.0434,-5.0484,-5.0504,-5.0586,-5.0632,-5.059,-5.0641,-5.0689,-5.0762,-5.0842,-5.0904,-5.1048,-5.1046,-5.1119,-5.1091,-5.1229,-5.1101,-5.1111,-5.1091,-5.1085,-5.1094,-5.1254,-5.1258,-5.1261,-5.1264,0,-5.0638,-5.0622,-5.069,-5.0755,-5.0812,-5.0862,-5.0905,-5.095,-5.0912,-5.0973,-5.1061,-5.1109,-5.1205,-5.1286,-5.1353,-5.1369,-5.1311,-5.1305,-5.1336,-5.1349,-5.1353,-5.1351,-5.0936,-5.1295,-5.1292,-5.129,-5.1288,-5.1287,-5.0874,-5.0953,-5.0982,-5.1061,-5.1089,-5.1132,-5.1205,-5.1205,-5.1276,-5.135,-5.1323,-5.1423,-5.1457,-5.154,-5.1565,-5.1643,-5.1591,-5.1636,-5.1648,-5.1659,-5.1673,-5.1343,-5.1656,-5.1655,-5.1654,-5.1653,-5.1652,0,-5.119,-5.1205,-5.1278,-5.134,-5.1402,-5.1342,-5.1387,-5.1443,-5.1532,-5.1568,-5.1631,-5.1732,-5.181,-5.1815,-5.1889,-5.1951,-5.1927,-5.1972,-5.1966,-5.1971,-5.1717,-5.1682,-5.1991,-5.1991,-5.1991,-5.1991,-5.199,-5.199,-5.1361,-5.1492,-5.148,-5.1625,-5.1639,-5.1735,-5.1766,-5.1805,-5.1834,-5.1949,-5.2014,-5.2016,-5.204,-5.2116,-5.2185,-5.2185,-5.2215,-5.227,-5.226,-5.2022,-5.1989,-5.1956,-5.1923,-5.2278,-5.2278,-5.2507,-5.2509,-5.251]},{"header":{"parameterUnit":"m.s-1","parameterCategory":1,"la1":30.2991,"la2":30.254,"lo1":-89.0895,"lo2":-89.0444,"dy":0.0017,"dx":0.0017,"nx":28,"ny":28,"refTime":"2024-09-03T21:00:00:Z","depth":0,"parameterNumber":3,"parameterNumberName":"V-component_of_WINDS"},"data":[0,0,0,0,0,0,0,0,0,0,0,0,0,0,0,0,0,0,0,0,0,0,0,0,0,0,0,0,0,0,0,0,0,0,0,0,0,0,0,0,0,0,0,0,0,0,0,0,0,0,0,0,0,0,0,0,0,0,-0.1947,-0.1947,0,-0.2014,-0.2015,-0.2016,-0.2073,-0.2073,-0.2074,-0.2074,-0.2149,-0.215,-0.2152,0,0,0,0,0,0,0,0,0,0,0,0,0,-0.187,-0.1871,-0.1947,-0.1947,-0.1948,-0.2014,-0.2015,-0.2016,-0.2073,-0.2073,-0.2074,-0.2075,-0.2148,-0.215,-0.2152,0,0,0,0,0,0,0,0,0,0,0,0,0,-0.1917,-0.1871,-0.1946,-0.1984,-0.1988,-0.2014,-0.2015,-0.2016,-0.2072,-0.2073,-0.2074,-0.2075,-0.2148,-0.215,-0.2152,-0.2147,0,0,-0.2159,-0.2159,0,0,0,0,0,0,0,0,-0.1914,-0.192,-0.1978,-0.1982,-0.1986,-0.2036,-0.2015,-0.206,-0.2072,-0.2041,-0.2074,-0.2075,-0.2111,-0.2116,-0.2127,-0.2151,-0.2154,-0.2159,-0.216,-0.2161,-0.2162,0,0,0,0,0,0,0,-0.1911,-0.1917,-0.1974,-0.1979,-0.1984,-0.1999,-0.2007,-0.2024,-0.207,-0.2043,-0.2048,-0.2055,-0.2113,-0.2125,-0.2129,-0.2155,-0.2159,-0.2161,-0.2162,-0.2163,-0.2178,-0.2177,0,0,0,0,0,0,-0.1901,-0.1914,-0.1971,-0.1976,-0.1952,-0.2,-0.2008,-0.2019,-0.207,-0.2078,-0.2054,-0.2057,-0.2121,-0.2127,-0.2132,-0.213,-0.2161,-0.2163,-0.2164,-0.2179,-0.2178,-0.2177,0,0,0,0,0,0,-0.1899,-0.1906,-0.1969,-0.1946,-0.1955,-0.2,-0.2012,-0.202,-0.2031,-0.2078,-0.2087,-0.2057,-0.2122,-0.2129,-0.2143,-0.2133,-0.2164,-0.2166,-0.218,-0.2178,-0.2177,-0.2126,0,0,0,0,0,0,-0.1897,-0.1905,-0.1903,-0.1945,-0.1956,-0.1977,-0.2011,-0.2021,-0.2034,-0.2039,-0.2083,-0.2091,-0.2123,-0.2139,-0.2145,-0.2137,-0.2168,-0.2181,-0.2179,-0.2178,-0.2129,-0.2123,-0.2118,0,0,0,0,0,-0.1894,-0.1887,-0.1902,-0.1909,-0.1954,-0.1976,-0.1982,-0.2018,-0.2033,-0.2032,-0.2062,-0.209,-0.2133,-0.214,-0.2147,-0.214,-0.2182,-0.218,-0.2178,-0.2131,-0.2124,-0.2118,0,0,0,0,0,0,-0.1844,-0.1893,-0.1911,-0.1917,-0.1942,-0.1986,-0.1986,-0.2009,-0.2032,-0.2036,-0.208,-0.2089,-0.2098,-0.212,-0.2127,-0.2137,-0.2161,-0.216,-0.2123,-0.2117,-0.2112,-0.2107,-0.2169,0,0,0,0,0,-0.1833,-0.1846,-0.1888,-0.189,-0.1901,-0.194,-0.1952,-0.1976,-0.2004,-0.2016,-0.2046,-0.2074,-0.2094,-0.2106,-0.2127,-0.2131,-0.2142,-0.2129,-0.2124,-0.2119,-0.2119,-0.2123,-0.2118,-0.217,-0.217,-0.217,0,0,-0.1813,-0.1841,-0.1846,-0.188,-0.1903,-0.1916,-0.1949,-0.1962,-0.1973,-0.2018,-0.2033,-0.2056,-0.2089,-0.2098,-0.2103,-0.2117,-0.2107,-0.2117,-0.2113,-0.2115,-0.2121,-0.2116,-0.2111,-0.2169,-0.2169,-0.2169,0,0,-0.1782,-0.1803,-0.1807,-0.1827,-0.1859,-0.1885,-0.1886,-0.1926,-0.1942,-0.1956,-0.1991,-0.2004,-0.2037,-0.206,-0.2076,-0.205,-0.2077,-0.2055,-0.2029,-0.2032,-0.2028,-0.2025,-0.2017,-0.2014,-0.2054,-0.2054,-0.2054,0,-0.1752,-0.1772,-0.1806,-0.1816,-0.183,-0.1869,-0.1874,-0.1893,-0.193,-0.194,-0.1953,-0.1995,-0.202,-0.2035,-0.2028,-0.2039,-0.2042,-0.2052,-0.2026,-0.2023,-0.202,-0.2013,-0.201,-0.2052,-0.2052,-0.2052,-0.2052,0,-0.1735,-0.1748,-0.1747,-0.178,-0.1794,-0.1801,-0.1837,-0.1847,-0.1869,-0.1894,-0.1909,-0.194,-0.1967,-0.1972,-0.1995,-0.199,-0.1997,-0.2017,-0.2043,-0.2012,-0.2006,-0.2004,-0.2048,-0.2049,-0.2049,-0.205,0,0,-0.1678,-0.1727,-0.1726,-0.1742,-0.1778,-0.179,-0.1798,-0.1823,-0.1832,-0.1855,-0.1865,-0.189,-0.1909,-0.1927,-0.1952,-0.1955,-0.1933,-0.1975,-0.1977,-0.1968,-0.193,-0.1916,-0.1913,-0.195,-0.195,-0.1949,-0.1928,0,-0.1654,-0.1671,-0.17,-0.1708,-0.1721,-0.1756,-0.1764,-0.1788,-0.1811,-0.1826,-0.1851,-0.1869,-0.1892,-0.1902,-0.1906,-0.1935,-0.1927,-0.1937,-0.1961,-0.1962,-0.1954,-0.1909,-0.1895,-0.1874,-0.1926,-0.1926,-0.1925,0,-0.163,-0.1649,-0.1657,-0.1692,-0.1698,-0.1704,-0.1729,-0.1742,-0.177,-0.1786,-0.1804,-0.1831,-0.1844,-0.1864,-0.1882,-0.1888,-0.19,-0.1915,-0.1915,-0.1921,-0.1943,-0.1916,-0.1868,-0.1865,-0.1922,-0.1922,-0.1922,0,-0.1589,-0.1617,-0.1625,-0.1637,-0.1677,-0.1681,-0.1698,-0.1726,-0.1739,-0.1761,-0.177,-0.1793,-0.1806,-0.1824,-0.1857,-0.1869,-0.1872,-0.1895,-0.1887,-0.1887,-0.1889,-0.1889,-0.1844,-0.1892,-0.1892,-0.1892,-0.1892,0,-0.1561,-0.1565,-0.1607,-0.1613,-0.1619,-0.1652,-0.1657,-0.1678,-0.1702,-0.1714,-0.1746,-0.1756,-0.1797,-0.1812,-0.1838,-0.185,-0.1855,-0.187,-0.1877,-0.1868,-0.1867,-0.1878,-0.1882,-0.1892,-0.1892,-0.1892,-0.1892,0,-0.1518,-0.1546,-0.1558,-0.1594,-0.1603,-0.1605,-0.1637,-0.1644,-0.1667,-0.168,-0.1686,-0.1723,-0.1742,-0.1775,-0.1805,-0.1822,-0.1829,-0.184,-0.182,-0.1824,-0.1815,-0.1816,-0.1778,-0.1776,-0.1823,-0.1823,-0.1822,0,-0.1499,-0.1503,-0.1538,-0.1546,-0.1562,-0.1575,-0.1587,-0.162,-0.1632,-0.1662,-0.1666,-0.1687,-0.1706,-0.1735,-0.1766,-0.1788,-0.1802,-0.1786,-0.1806,-0.1796,-0.1803,-0.1804,-0.1805,-0.1783,-0.1782,-0.1782,-0.1781,0,-0.1463,-0.1477,-0.1492,-0.1512,-0.1525,-0.1543,-0.1562,-0.1568,-0.1605,-0.1617,-0.1636,-0.165,-0.1678,-0.1699,-0.1726,-0.1745,-0.177,-0.1774,-0.1774,-0.1767,-0.1755,-0.1762,-0.181,-0.1776,-0.1777,-0.1777,-0.1777,-0.1777,-0.1434,-0.1438,-0.1463,-0.1479,-0.1496,-0.1513,-0.1521,-0.1544,-0.156,-0.1584,-0.1603,-0.162,-0.1647,-0.1685,-0.1702,-0.1717,-0.1729,-0.1728,-0.1728,-0.1728,-0.1725,-0.175,-0.1722,-0.1722,-0.1722,-0.1722,-0.1723,0,-0.1401,-0.1418,-0.1432,-0.1457,-0.1469,-0.1488,-0.151,-0.152,-0.1534,-0.1556,-0.1573,-0.1594,-0.1614,-0.1645,-0.1667,-0.1673,-0.1685,-0.1679,-0.168,-0.1684,-0.1713,-0.1712,-0.1668,-0.1668,-0.1668,-0.1668,-0.1669,-0.1669,-0.1386,-0.1395,-0.141,-0.1428,-0.1446,-0.1461,-0.1472,-0.1488,-0.1506,-0.1527,-0.1543,-0.1562,-0.1588,-0.1612,-0.1631,-0.164,-0.1648,-0.1637,-0.165,-0.1677,-0.1682,-0.1687,-0.1686,-0.1638,-0.1638,-0.162,-0.162,-0.162]}]]